CAPE
0 0 0 0 0 0 0 0 0 0 0 0 0 0 0 0 0 0 0 0 0 0 0 0 0 0 0 0 0 0 0 0 0 0 0 0 0 0 0 0 0 547 532 423
0 0 0 0 0 0 0 0 0 0 0 0 0 4 0 0 0 1 0 0 0 0 0 0 0 0 0 0 0 0 0 0 0 1 1 1 1 2 1 0 0 0 473 454
0 0 0 0 0 0 0 0 0 0 0 0 0 0 0 0 1 0 1 2 0 0 0 0 0 0 0 0 0 0 0 0 0 1 1 1 0 0 1 1 1 0 0 10
0 0 0 0 0 0 0 0 0 0 0 1 0 2 0 0 0 0 2 4 0 0 0 0 0 0 0 0 0 0 0 0 0 1 1 2 2 3 2 2 2 1 2 1
0 0 0 0 0 0 0 0 0 0 7 35 5 17 0 0 0 0 0 0 0 1 0 0 0 0 0 0 0 0 0 0 2 2 1 0 0 2 3 2 2 3 1 1
0 0 0 0 0 0 0 0 0 0 21 0 0 0 0 0 0 0 0 0 0 0 0 0 0 0 0 0 0 0 0 0 1 2 1 1 1 0 2 2 2 3 3 2
0 0 0 0 0 0 0 0 0 0 0 0 0 4 0 0 0 0 0 0 0 0 0 0 0 0 0 0 0 0 0 0 0 2 2 0 1 1 1 2 2 2 4 4
0 0 0 0 0 0 0 0 0 1 4 4 0 0 0 0 0 0 0 0 0 0 0 0 0 0 0 0 0 0 0 0 1 1 2 2 1 0 3 3 2 2 2 2
0 0 0 0 0 0 0 0 0 2 2 0 1 0 0 0 0 0 0 0 0 0 0 0 0 0 0 0 0 0 0 0 1 2 2 1 1 0 0 4 3 2 2 2
0 0 0 0 0 0 0 0 0 0 9 1 3 7 0 0 0 0 1 2 0 0 1 1 0 0 0 0 0 0 0 0 2 1 1 2 2 1 2 2 3 5 2 1
0 0 0 0 0 0 0 0 0 0 2 0 8 6 0 0 0 0 2 4 1 0 2 3 1 0 0 0 0 0 0 0 3 1 2 2 3 2 2 3 1 3 2 2
0 0 0 0 0 0 0 0 0 0 0 0 2 8 0 0 0 0 1 2 0 2 5 1 2 1 0 0 0 0 0 1 4 0 2 3 7 5 1 1 2 2 3 2
0 0 0 0 0 0 0 0 0 0 0 1 8 5 0 0 0 0 2 0 1 8 6 4 3 2 1 0 0 0 0 1 3 2 3 7 1 3 5 2 1 3 2 3
0 0 0 0 0 0 0 0 0 0 0 0 0 0 0 0 0 0 0 0 3 5 8 13 13 6 1 1 0 0 0 2 2 1 1 6 2 3 7 2 2 1 1 2
0 0 0 0 0 0 0 0 0 0 0 0 0 0 0 0 0 0 0 0 0 3 5 6 18 8 2 2 0 0 2 1 1 1 2 2 7 3 4 3 1 3 1 4
0 0 0 0 0 0 0 0 0 0 0 0 0 0 11 1 2 2 4 0 0 1 4 15 15 9 3 2 0 0 2 1 3 2 1 4 7 3 1 1 1 2 1 4
0 0 0 0 0 0 0 0 0 0 0 0 0 0 0 2 0 0 0 1 9 2 9 19 7 4 4 1 1 1 2 3 2 4 2 5 5 3 2 2 0 3 1 4
0 0 0 0 0 0 0 0 0 0 0 0 0 1 0 1 6 9 2 4 0 21 14 8 4 4 1 0 1 1 2 6 7 9 6 6 3 1 3 3 3 1 3 4
0 0 0 0 0 0 0 0 0 0 0 0 0 0 0 3 5 5 0 0 14 4 0 0 2 1 0 0 2 5 2 4 2 3 4 6 9 2 2 7 3 0 2 1
0 0 0 0 0 0 0 0 0 0 0 0 0 0 0 1 6 7 6 9 4 0 0 0 0 1 0 2 4 2 7 11 3 2 0 6 12 10 0 12 16 3 2 1
0 0 0 0 0 0 0 0 0 0 0 0 0 0 0 0 2 1 2 0 0 0 0 0 0 0 1 2 1 2 2 2 1 1 2 4 6 7 6 13 6 5 1 0
0 0 0 0 0 0 0 0 0 0 0 0 0 0 0 0 0 0 0 0 0 0 0 0 0 0 0 1 1 2 1 0 0 0 0 3 3 10 14 8 8 8 2 1
0 0 0 0 0 0 0 0 0 0 0 0 0 0 0 0 0 0 0 0 0 0 0 0 0 1 0 0 0 0 0 0 0 0 0 0 7 3 10 11 15 11 3 3
0 0 0 0 0 0 0 0 0 0 0 0 0 0 0 0 0 0 0 0 0 0 0 0 0 1 2 0 0 0 0 0 0 0 0 0 3 0 3 11 13 19 4 6
0 0 0 0 0 0 0 0 0 0 0 0 0 0 0 0 0 0 0 0 0 0 0 0 1 1 0 0 0 0 0 0 0 0 0 0 2 7 3 2 10 6 1 0
0 0 0 0 0 0 0 0 0 0 0 0 0 0 0 0 0 0 0 0 0 0 0 0 0 0 0 0 0 0 0 0 0 0 1 0 1 3 3 4 7 1 0 0
CIN
0 0 0 0 0 0 0 0 0 0 0 0 0 0 0 0 0 0 0 0 0 0 0 0 0 0 0 0 0 0 0 0 0 0 0 0 -1 0 0 0 0 0 0 -1
0 0 0 0 0 0 0 0 0 0 0 0 0 -13 0 0 0 -3 -2 0 0 0 0 0 0 0 0 0 0 0 0 0 0 0 -1 -1 -1 0 0 0 0 0 -4 -1
0 0 0 0 0 0 0 0 0 0 0 0 -2 -15 0 0 -3 -3 -6 -7 -5 -6 -8 -6 -1 0 0 0 0 0 0 0 -1 -1 -1 -1 -1 0 0 0 0 0 0 -62
0 0 0 0 0 0 0 0 0 0 0 -14 -1 -6 -5 0 0 0 -3 -8 -6 -3 -2 -1 0 0 0 0 0 0 0 0 -2 -1 -1 -1 0 0 0 0 0 0 0 0
0 0 0 0 0 0 0 0 0 0 -3 -6 -14 -7 0 -6 -2 0 -7 -5 -6 -7 0 0 0 0 0 0 0 0 0 0 -1 -1 -2 0 -1 -1 0 0 0 0 0 0
0 0 0 0 0 0 0 0 0 -3 -5 0 0 -5 0 0 0 0 0 0 0 0 0 0 0 0 0 0 0 0 0 0 -2 -1 -1 0 -2 -1 0 0 0 0 0 0
0 0 0 0 0 0 0 0 0 0 -6 -2 0 -4 -1 0 0 0 0 0 0 0 0 0 0 0 0 0 0 0 0 0 -2 -2 -1 -1 -2 -1 -1 0 0 0 0 0
0 0 0 0 0 0 0 0 -1 -5 -5 -6 0 -1 0 0 0 0 0 0 0 0 0 0 0 0 0 0 0 0 -4 0 -2 -2 -1 -1 -1 0 0 0 0 0 0 0
0 0 0 0 0 0 0 0 0 -5 -8 -11 -2 0 0 -4 0 0 -3 -1 -1 0 0 0 0 0 0 0 0 0 -1 -5 -4 -2 -1 -1 -1 -1 -1 0 0 0 0 0
0 0 0 0 0 0 0 0 0 -3 -4 -8 -5 -9 0 0 0 0 -4 -4 -6 -9 -8 -8 -1 0 0 0 0 0 0 -2 -4 -3 -3 -2 -1 -1 -2 0 0 0 0 0
0 0 0 0 0 0 0 0 0 0 -6 -1 -6 -10 0 0 0 0 -4 -6 -8 -10 -10 -10 -7 0 0 0 0 0 0 0 -5 -3 -4 -3 -1 -1 -1 -1 0 0 0 0
0 0 0 0 0 0 0 0 0 0 0 -1 -10 -11 0 0 0 -3 -3 -5 -3 -11 -8 -9 -12 -8 -8 0 0 0 0 -4 -4 -4 -3 -2 0 0 -1 -1 0 0 0 0
0 0 0 0 0 0 0 0 0 0 0 -10 -6 -7 0 0 0 0 -4 -5 -8 -8 -8 -7 -8 -10 -10 -4 0 0 0 -5 -4 -4 -4 -2 -4 -2 -1 -3 0 0 0 0
0 0 0 0 0 0 0 0 0 0 0 0 0 -3 0 0 0 0 0 0 -4 -10 -8 -6 -6 -10 -8 -8 0 0 -2 -5 -5 -3 -6 -3 -6 -1 0 -2 0 0 0 0
0 0 0 0 0 0 0 0 0 0 0 0 0 0 0 0 0 0 0 -4 0 -5 -6 -6 -6 -6 -7 -8 0 0 -6 -7 -5 -4 -6 -4 -3 -2 0 -2 0 -1 0 0
0 0 0 0 0 0 0 0 0 0 0 0 0 -1 -5 -1 -9 -18 -19 0 -1 -2 -4 -4 -4 -7 -6 -7 0 -5 -5 -5 -5 -4 -5 -3 -3 -2 -1 -1 -1 0 0 0
0 0 0 0 0 0 0 0 0 0 0 0 0 0 -2 -3 -2 0 0 -8 -7 -5 -6 -4 -6 -6 -7 -7 -6 -6 -6 -4 -5 -5 -5 -5 -3 -3 -2 -1 -1 0 0 0
0 0 0 0 0 0 0 0 0 0 0 0 0 -2 -3 -10 -5 -9 -15 -10 -9 -4 -5 -5 -6 -6 -9 -7 -7 -5 -6 -5 -5 -5 -4 -4 -4 -4 -3 -1 0 -1 0 0
0 0 0 0 0 0 0 0 0 0 0 0 0 0 0 -4 -7 -7 -26 -1 -4 -5 -1 -4 -7 -5 -5 -6 -7 -6 -4 -4 -3 -3 -2 -3 -3 -4 -4 -1 0 -1 0 0
0 0 0 0 0 0 0 0 0 0 0 0 0 0 0 -4 -3 -5 -5 -5 -6 -1 0 -1 -4 -5 -2 -5 -5 -5 -2 -3 -3 -3 -1 -2 -4 -3 -4 -2 0 0 0 0
0 0 0 0 0 0 0 0 0 0 0 0 0 0 0 -2 -3 -2 -4 -3 0 0 0 0 0 -4 -5 -6 -6 -5 -4 -3 -4 -5 -3 -3 -2 -3 -4 -2 -1 -1 -2 -1
0 0 0 0 0 0 0 0 0 0 0 0 0 0 0 0 0 0 0 0 0 0 -2 -1 -2 -5 -6 -6 -5 -3 -4 -2 -4 -2 -2 -4 -3 -3 -3 -2 -2 -1 -2 -1
0 0 0 0 0 0 0 0 0 0 0 0 0 0 0 0 0 0 0 0 0 0 0 0 -5 -5 -2 -6 -2 -3 -3 0 0 0 0 -4 -3 -3 -1 -2 -3 -2 -2 -1
0 0 0 0 0 0 0 0 0 0 0 0 0 0 0 0 0 0 0 0 0 0 0 0 -3 -5 -3 0 0 0 0 0 0 0 0 0 -4 -5 -3 -2 -1 -2 -2 -2
0 0 0 0 0 0 0 0 0 0 0 0 0 0 0 0 0 0 0 0 0 0 0 0 -3 -2 -2 0 0 0 0 -1 0 0 -1 -4 -4 -4 -3 -5 -3 -2 -4 0
0 0 0 0 0 0 0 0 0 0 0 0 0 0 0 0 0 0 0 0 0 0 0 0 0 0 0 0 0 0 -1 -2 -2 -3 -3 -1 -5 -5 -4 -3 -3 -11 0 0
Wind_Speed
38 43 46 41 39 39 36 37 39 38 38 35 35 34 28 31 34 36 38 38 37 37 36 35 35 34 33 33 32 32 33 33 33 33 34 33 33 33 30 30 32 29 23 18
28 45 39 38 37 41 39 35 41 40 37 33 34 22 24 28 30 31 34 35 37 38 36 35 35 34 34 33 33 33 32 33 33 32 33 33 34 31 32 30 31 30 26 22
40 37 38 40 41 42 41 40 43 40 34 22 20 18 20 22 24 29 31 32 32 35 37 37 36 34 34 34 33 33 33 32 32 33 33 33 33 32 32 32 33 33 33 33
33 34 41 41 42 40 37 39 32 27 28 26 13 23 19 23 27 31 33 33 33 33 33 34 36 36 34 34 34 33 33 33 32 33 33 34 33 35 34 34 35 36 35 35
28 32 38 42 39 36 36 34 27 14 15 14 15 19 19 25 30 32 33 33 33 33 33 33 33 34 34 34 34 33 33 33 33 33 33 33 34 34 34 35 35 35 35 34
31 30 33 38 34 33 32 36 30 13 11 15 20 24 23 28 30 33 33 33 33 33 33 33 33 33 33 34 34 33 33 33 33 33 33 34 34 35 35 35 35 35 35 35
23 30 30 38 36 32 38 39 38 28 17 15 16 19 19 24 28 30 32 33 33 33 33 34 34 34 34 34 34 33 34 34 33 33 33 33 34 35 35 35 35 37 36 36
28 25 35 34 34 35 37 36 35 31 23 11 12 16 14 19 27 30 31 33 33 33 33 33 34 34 34 35 34 34 34 35 34 33 33 33 33 34 35 35 35 36 36 36
30 28 26 30 28 32 32 37 27 22 17 15 13 11 13 17 28 31 31 33 34 34 34 34 33 34 35 35 35 34 35 35 34 33 33 33 33 34 35 36 35 35 36 37
27 28 26 27 26 29 30 28 35 30 29 27 18 13 15 19 26 32 32 33 35 35 35 35 34 34 34 34 35 34 34 34 34 33 33 33 33 33 34 35 36 36 37 37
27 23 27 22 28 31 30 32 29 24 22 28 25 18 11 12 22 29 33 34 36 38 37 37 36 35 35 34 34 34 34 33 33 33 33 33 33 33 34 34 35 36 37 37
25 23 27 26 22 22 23 27 27 32 29 23 20 21 11 11 16 23 31 34 36 38 38 38 38 37 35 34 34 33 33 33 33 33 33 33 33 33 33 34 34 35 36 36
25 25 30 28 24 19 26 23 23 22 22 23 24 23 10 13 14 13 15 28 35 38 39 39 38 36 36 34 34 33 33 33 33 33 33 32 33 32 33 33 33 34 35 35
21 22 25 28 25 22 25 23 21 21 25 26 21 19 16 12 10 9 9 14 15 22 39 40 38 35 34 34 34 33 32 32 33 33 32 32 32 32 32 32 32 33 33 34
20 23 21 20 19 19 22 21 21 20 18 22 20 20 16 13 10 7 6 9 11 12 22 32 37 33 32 33 33 32 32 32 32 32 32 31 31 31 31 31 31 32 31 31
18 22 22 22 22 21 21 19 19 18 18 17 18 18 15 14 12 12 8 8 9 11 14 21 33 31 31 32 31 31 31 31 31 31 31 30 30 30 30 30 29 30 30 29
18 21 25 26 23 23 24 20 20 20 16 18 21 18 16 15 15 12 8 8 9 10 13 13 20 31 31 31 29 29 29 30 29 30 30 29 29 29 29 28 29 28 28 28
17 19 20 24 25 30 23 20 19 18 16 16 15 19 18 16 12 11 10 10 12 12 11 12 6 31 31 29 28 28 27 27 27 28 29 28 28 27 27 27 27 27 26 26
13 18 23 26 27 19 18 18 19 21 19 16 16 18 16 15 15 14 15 15 12 11 12 12 11 16 29 27 27 26 26 26 26 27 28 27 27 26 25 25 25 25 25 24
14 13 18 23 29 31 24 18 18 19 23 21 17 19 19 18 22 18 15 13 13 12 10 10 10 9 26 26 26 25 25 25 25 26 26 26 26 25 25 24 24 24 23 23
19 18 18 19 23 20 15 16 17 25 25 18 17 16 17 20 17 13 14 15 14 12 11 10 10 11 16 25 25 25 25 26 26 25 25 26 26 25 24 23 23 23 23 22
19 22 23 22 24 27 16 16 18 17 16 16 16 16 16 15 15 15 16 15 15 14 12 12 9 10 13 25 25 25 26 26 27 26 25 25 26 25 24 24 23 22 23 23
20 14 20 17 20 18 10 9 11 9 12 14 14 15 15 16 16 17 17 17 16 15 15 14 12 9 10 12 26 27 27 28 28 28 26 25 25 24 25 24 23 23 24 24
13 8 14 18 18 12 6 5 4 9 10 11 13 14 15 16 17 18 18 16 16 17 17 15 13 12 10 7 5 27 28 28 28 28 27 25 25 25 25 24 23 23 24 25
10 13 13 12 11 11 10 7 5 6 9 10 12 13 14 15 16 17 17 18 18 17 17 18 17 15 12 10 9 8 19 28 27 27 26 25 25 25 24 25 24 24 22 23
9 10 8 20 18 13 18 11 8 8 9 10 11 12 13 14 15 17 17 18 19 19 19 18 18 18 17 15 13 12 11 7 25 26 25 24 25 25 25 25 25 22 22 22
Wind_Direction
21 9 2 1 2 353 345 337 331 329 324 315 310 301 306 312 312 309 305 301 300 300 302 304 303 304 304 305 305 304 301 300 298 295 292 292 290 288 289 289 281 281 287 288
23 14 13 10 4 358 352 343 336 330 325 315 310 309 310 318 317 315 312 308 301 301 302 302 303 304 303 304 303 303 302 300 298 297 293 290 289 287 286 288 286 287 282 283
26 23 18 12 6 2 358 352 341 333 330 321 313 317 320 329 331 327 322 316 312 304 302 302 302 302 305 303 302 301 301 300 298 298 294 292 290 289 285 286 283 281 281 280
28 23 17 14 10 8 5 357 347 341 340 333 339 320 326 327 326 328 325 318 312 311 311 305 303 301 301 303 304 302 300 299 298 298 295 292 288 285 286 284 283 281 281 283
31 27 22 17 14 12 7 2 351 1 17 1 356 330 337 336 325 327 326 327 320 314 310 311 309 305 303 305 304 303 301 299 298 296 295 292 288 287 287 285 283 281 280 281
39 37 30 22 18 20 12 12 17 57 53 28 2 337 332 331 325 327 328 329 328 323 317 314 312 310 308 306 306 305 302 300 300 297 294 292 289 288 287 286 283 282 280 279
36 33 32 24 24 29 24 24 30 41 33 37 11 353 346 344 336 329 327 330 330 325 323 318 315 313 311 309 305 304 304 300 300 298 296 292 291 289 287 286 285 281 280 277
27 24 27 27 33 27 30 31 33 29 30 357 43 30 11 359 336 325 322 321 321 324 321 321 320 317 315 312 308 304 301 299 301 299 297 294 292 290 288 287 286 283 280 280
28 31 35 34 35 33 30 33 30 34 32 29 45 47 35 19 346 326 319 326 323 321 320 317 313 317 316 316 312 307 302 300 302 300 297 296 294 291 289 287 286 284 282 280
32 30 36 35 38 37 37 38 31 37 38 31 29 25 57 22 1 336 326 321 325 323 319 316 314 312 312 314 313 312 307 301 300 301 299 296 296 292 290 289 286 285 283 281
30 34 25 39 34 33 37 35 37 33 47 26 30 34 58 34 10 351 330 328 326 324 323 317 312 310 308 310 312 312 311 305 303 302 300 297 296 295 291 289 289 286 284 282
34 33 22 34 44 45 39 34 37 35 31 33 30 36 67 41 29 8 344 330 327 325 323 319 311 310 306 305 308 309 312 310 307 302 300 298 297 296 294 291 290 288 285 284
34 34 29 36 39 40 30 33 34 36 32 31 27 32 63 32 25 15 9 355 339 328 322 319 311 305 307 306 307 306 307 310 310 307 300 296 297 297 295 294 292 290 286 284
41 35 34 28 24 22 23 26 32 39 35 27 26 25 17 7 4 357 360 5 2 358 329 317 311 303 304 306 309 303 305 309 308 308 304 296 294 297 297 297 295 291 289 285
41 33 30 23 21 25 22 24 32 32 30 28 18 15 6 2 356 343 4 357 347 356 3 301 309 301 299 300 304 303 302 305 306 309 306 301 296 297 297 298 297 294 291 289
43 31 21 20 36 27 22 27 29 27 27 24 18 13 29 7 5 7 353 347 356 5 3 6 308 301 299 298 299 301 303 306 307 312 308 306 301 296 298 299 300 296 293 291
36 30 24 28 29 25 27 35 33 31 33 31 24 18 12 15 15 15 15 10 22 12 6 11 300 303 300 298 298 301 300 304 307 313 313 308 305 300 298 300 301 300 295 294
33 28 26 21 24 29 37 42 39 32 30 30 26 28 35 29 26 21 35 43 22 12 14 20 349 307 304 304 302 301 301 304 308 313 315 309 307 303 301 301 301 303 300 298
43 32 28 28 22 13 26 38 34 28 24 32 35 37 33 32 27 34 51 27 18 18 26 27 28 284 308 308 309 304 306 308 309 310 311 308 308 304 303 302 304 306 304 302
42 39 29 25 25 27 34 43 41 38 32 51 44 36 32 33 29 31 25 25 24 26 30 30 33 45 311 310 312 310 309 310 310 312 307 307 309 305 303 304 303 307 310 308
32 29 21 21 21 22 33 50 49 34 35 40 38 35 31 31 30 23 25 25 27 31 31 37 45 51 313 315 316 314 310 311 306 304 309 313 312 306 305 307 306 306 308 309
27 27 25 29 24 23 55 53 36 39 37 35 34 33 31 31 31 28 26 29 31 31 36 43 50 54 53 325 317 308 311 314 314 304 309 314 317 313 307 308 309 307 308 307
23 32 25 31 24 35 50 35 44 37 31 33 33 34 35 34 32 30 32 33 35 39 41 46 50 58 63 52 316 310 309 314 314 311 308 312 316 319 319 312 309 312 310 308
18 23 21 19 29 18 16 30 31 37 35 38 39 41 41 36 35 34 35 39 43 44 45 48 52 56 62 71 80 314 318 316 312 312 317 311 317 316 321 326 320 319 314 312
355 23 16 357 349 2 16 27 48 45 46 42 47 45 42 41 39 38 40 44 47 50 51 53 54 59 62 66 70 73 337 322 317 315 317 325 323 317 321 321 327 323 330 328
17 18 7 17 23 26 24 38 63 57 48 52 48 44 45 44 42 42 45 48 49 53 56 60 59 59 60 64 68 67 67 85 323 325 322 323 322 325 326 318 320 332 336 335